SCP
0 0 0 0 0 0 0 0 0 0 0 0 0 0 0 0 0 0 0 0 0 0 0 0 1 1 1 1 1 1 1 1 1 1 1 1 0 0 0 0 0 0 0
0 0 0 0 0 0 0 0 0 0 0 0 0 0 0 0 0 0 0 0 0 0 0 0 0 1 1 1 1 1 1 1 1 1 0 0 0 0 0 0 0 -0 -0
0 0 0 0 0 0 0 0 0 0 0 0 0 0 0 0 0 0 0 0 0 0 0 0 0 0 0 1 1 1 1 1 1 0 0 0 0 0 0 0 0 0 -0
0 0 0 0 0 0 0 0 0 0 0 0 0 0 0 0 0 0 0 0 0 0 0 0 0 1 1 1 1 1 1 1 1 0 0 0 0 0 0 0 0 0 0
1 0 0 0 0 0 0 0 0 0 0 0 0 0 0 0 0 0 0 0 0 0 0 0 0 0 0 0 0 0 1 1 1 1 1 0 0 0 0 0 0 0 0
0 0 0 1 1 3 0 0 0 0 0 0 0 0 0 0 0 0 0 0 0 0 0 0 0 0 0 0 0 0 0 1 1 1 1 0 0 0 0 0 0 0 0
0 0 0 0 1 1 0 0 0 0 0 0 0 0 0 0 0 0 0 0 0 0 0 0 0 0 0 0 0 0 0 0 0 0 0 0 0 0 0 0 0 0 0
0 0 0 0 0 0 1 0 0 0 0 0 0 0 0 0 0 0 0 0 0 0 0 0 0 0 0 0 0 0 0 0 0 0 0 0 0 0 0 0 0 0 0
0 0 0 0 0 0 0 0 0 0 0 0 0 0 0 0 0 0 0 0 0 0 0 0 0 0 0 0 0 0 0 0 0 0 0 0 0 0 0 0 0 0 0
0 0 0 0 0 0 0 0 0 0 0 0 0 0 0 0 0 0 0 0 0 0 0 0 0 0 0 0 0 0 0 0 0 0 0 0 0 0 1 1 0 0 0
0 0 0 0 0 0 0 0 0 0 0 0 0 0 0 0 0 0 0 0 0 0 0 0 0 0 0 0 0 0 0 0 0 0 0 1 1 1 1 1 0 0 0
0 0 0 -0 0 0 0 0 0 0 0 0 0 0 0 0 0 0 0 0 0 0 0 0 0 0 0 0 0 0 0 0 0 0 0 0 0 0 0 0 1 1 0
0 0 0 0 0 0 0 0 0 0 0 0 0 0 0 0 0 0 0 0 0 0 0 0 0 0 0 0 0 0 0 0 0 0 0 0 0 0 0 0 0 0 0
0 0 0 0 0 0 0 0 0 0 0 0 0 0 0 0 0 0 0 0 0 0 0 0 0 0 0 0 0 0 0 0 0 0 0 0 0 0 0 0 0 0 0
0 0 0 0 0 0 0 0 0 0 0 0 0 0 0 0 0 0 0 0 0 0 0 0 0 0 0 0 0 0 0 0 0 0 0 0 0 0 0 0 0 0 0
0 0 0 0 0 0 0 0 0 0 0 0 0 0 0 0 0 0 0 0 0 0 0 0 0 0 0 0 0 0 0 0 0 0 0 0 0 0 0 0 0 0 0
0 0 0 0 0 0 0 0 0 0 0 0 0 0 0 0 0 0 0 0 0 0 0 0 0 0 0 0 0 0 0 0 0 0 0 0 0 0 0 0 0 0 0
0 0 0 0 0 0 0 0 0 0 0 0 0 0 0 0 0 0 0 0 0 0 0 0 0 0 0 0 0 0 0 0 0 0 0 0 0 0 0 0 0 0 0
0 0 0 0 0 0 0 0 0 0 0 0 0 0 0 0 0 0 0 0 0 0 0 0 0 0 0 0 0 0 0 0 0 0 0 0 0 0 0 0 0 0 0
0 0 0 0 0 0 0 0 0 0 0 0 0 0 0 0 0 0 0 0 0 0 0 0 0 0 0 0 0 0 0 0 0 0 0 0 0 0 0 0 0 0 0
0 0 0 0 0 0 0 0 0 0 0 0 0 0 0 0 0 0 0 0 0 0 0 0 0 0 0 0 0 0 0 0 0 0 0 0 0 0 0 0 0 0 0
0 0 0 0 0 0 0 0 0 0 0 0 0 0 0 0 0 0 0 0 0 0 0 0 0 0 0 0 0 0 0 0 0 0 0 0 0 0 0 0 0 0 0
0 0 0 0 0 0 0 0 0 0 0 0 0 0 0 0 0 0 0 0 0 0 0 0 0 0 0 0 0 0 0 0 0 0 0 0 0 0 0 0 0 0 0
0 0 0 0 0 0 0 0 0 0 0 0 0 0 0 0 0 0 0 0 0 0 0 0 0 0 0 0 0 0 0 0 0 0 0 0 0 0 0 0 0 0 0
0 0 0 0 0 0 0 0 0 0 0 0 0 0 0 0 0 0 0 0 0 0 0 0 0 0 -0 -0 0 0 0 0 0 0 0 0 0 0 0 0 0 0 0
0 0 0 0 0 0 0 0 0 0 0 0 0 0 0 0 0 0 0 0 0 0 0 0 0 0 0 0 -0 -0 0 0 0 0 0 0 0 0 0 0 0 0 0
Wind_Speed_500mb
44 41 43 45 44 40 38 35 35 36 33 32 28 23 18 17 15 16 16 17 20 21 24 28 26 29 32 36 39 40 38 40 38 40 41 43 45 46 48 48 49 47 46
43 44 44 44 43 38 34 31 26 27 28 25 31 30 26 21 20 21 22 25 30 29 28 30 30 31 32 34 39 38 40 38 41 39 42 45 44 43 50 49 52 55 50
43 45 44 42 36 33 36 37 35 33 35 35 36 34 33 27 23 26 28 31 33 30 29 35 36 37 37 40 43 46 49 53 51 51 46 50 50 47 47 49 51 57 53
44 44 45 42 36 36 37 39 39 42 42 41 40 35 32 29 29 23 23 33 35 37 40 41 34 35 37 41 46 48 47 45 53 57 53 51 55 54 53 51 49 54 57
44 43 42 45 39 38 50 55 51 54 48 42 42 38 38 48 45 43 40 41 43 44 42 35 32 36 42 44 47 50 51 43 37 38 40 48 58 58 55 54 51 50 57
45 41 40 40 55 50 67 69 66 55 52 52 55 55 52 53 48 45 41 42 44 43 40 35 33 30 27 30 39 39 37 39 36 38 43 43 49 53 48 54 52 49 54
72 66 69 73 74 62 79 72 57 55 53 53 63 67 49 66 55 50 49 49 51 43 37 33 32 30 28 30 35 41 38 34 31 32 38 43 36 42 51 55 43 43 47
81 39 37 58 79 92 71 97 56 63 62 64 66 58 50 55 55 54 49 53 49 39 39 38 37 34 31 31 32 37 43 45 46 41 41 45 44 43 42 49 47 47 48
84 81 84 79 73 65 90 66 67 65 61 58 59 37 26 41 42 47 46 45 42 42 41 43 41 43 40 39 40 40 44 43 47 41 38 41 46 45 47 47 42 39 43
75 64 63 63 49 51 63 71 58 47 52 59 36 40 59 58 39 41 44 37 41 47 52 49 49 50 52 49 47 52 51 50 50 49 45 41 40 44 43 39 41 37 36
27 33 23 21 30 36 42 44 38 37 35 32 30 62 65 50 55 56 61 66 65 65 64 61 60 64 65 62 60 59 51 54 48 52 47 39 38 39 42 43 42 41 36
43 26 31 36 38 36 41 43 39 35 45 55 54 52 51 49 49 53 59 64 75 84 79 77 78 81 78 71 66 60 52 59 60 53 55 46 37 40 38 38 40 39 41
32 34 37 38 45 44 44 51 48 50 53 59 44 45 47 48 50 54 61 70 80 88 93 97 95 92 86 80 75 65 61 58 58 53 53 57 48 44 39 37 37 36 37
33 38 42 45 46 49 53 46 49 49 54 50 49 51 53 55 56 60 62 65 74 78 74 78 73 80 87 87 77 69 67 56 49 56 52 56 55 53 44 44 40 40 40
14 17 19 23 31 31 32 31 36 39 48 55 58 62 63 67 71 75 76 73 68 77 86 73 72 67 66 73 74 71 66 68 71 62 56 56 56 59 54 49 52 48 52
19 17 19 21 25 30 33 36 40 45 51 55 57 62 67 71 75 77 78 80 78 74 93 71 69 73 70 68 61 66 72 72 72 75 63 69 65 70 56 52 59 46 48
21 26 27 29 32 36 38 41 45 51 55 59 62 67 73 75 79 81 80 80 80 75 89 95 70 64 61 65 76 84 80 79 75 75 75 56 57 68 59 54 46 48 54
32 35 39 42 42 43 46 48 50 52 54 57 58 61 66 67 71 72 75 80 85 87 88 105 80 71 73 71 66 68 71 77 86 92 90 82 75 71 71 71 59 58 63
38 39 41 42 44 45 45 44 43 43 45 48 51 55 57 57 59 56 58 62 65 66 68 82 100 83 82 88 86 81 75 77 84 82 77 85 82 80 81 75 64 60 56
38 37 37 38 40 42 43 42 41 41 46 50 52 53 53 53 55 54 56 60 67 71 73 70 83 77 68 65 69 74 89 92 91 89 86 87 81 54 51 54 58 53 49
36 35 36 37 40 44 40 39 39 45 49 53 55 52 51 52 55 59 66 65 62 66 69 70 75 71 66 61 62 67 73 75 86 90 89 86 85 88 66 60 56 55 51
34 36 38 40 38 33 30 28 33 42 44 49 52 52 54 58 59 61 58 58 61 67 72 73 78 74 76 72 70 73 75 70 73 67 63 61 61 63 70 79 65 67 64
35 32 30 31 31 29 31 33 35 40 45 46 49 52 56 61 65 68 68 65 65 65 68 71 75 78 79 71 69 72 76 76 71 75 62 71 60 66 59 60 61 65 55
26 28 29 29 30 29 35 34 31 35 41 46 52 57 60 68 52 53 53 58 64 68 69 70 75 77 73 72 66 70 70 63 70 73 60 72 58 60 50 52 49 51 58
22 26 30 36 36 31 31 34 33 38 44 47 49 56 50 48 51 50 54 61 69 76 73 74 76 68 72 70 67 69 77 67 73 77 57 57 53 51 43 48 59 64 64
23 28 33 37 32 33 32 29 29 37 39 42 44 38 43 45 45 44 47 54 63 67 64 64 67 66 68 73 73 71 75 85 82 58 50 52 51 42 31 26 32 42 49
Wind_Direction_500mb
246 249 246 241 239 237 241 244 251 252 251 251 240 238 236 238 239 241 248 257 267 273 285 287 287 291 295 296 293 294 290 295 302 299 293 289 281 273 268 269 271 268 266
255 254 249 245 243 244 246 244 252 257 250 251 234 234 230 230 237 242 258 273 283 281 286 287 285 286 285 279 275 284 283 286 296 297 290 284 277 277 271 266 266 269 270
259 258 253 246 245 243 246 255 264 261 250 250 241 240 237 235 247 259 273 280 279 275 283 293 295 294 291 287 279 282 281 280 277 279 282 281 276 266 265 262 263 268 268
249 253 253 248 252 254 255 257 257 258 260 259 255 248 244 260 270 260 276 272 265 274 285 288 289 299 299 297 293 292 291 290 285 280 281 280 280 274 263 260 253 256 262
252 250 247 247 241 264 258 259 255 262 264 257 250 254 273 278 263 263 262 262 270 281 279 282 287 295 295 293 294 296 292 288 295 295 299 295 277 271 271 263 260 254 255
261 254 249 251 251 252 260 262 254 250 256 261 266 270 285 273 262 254 255 261 273 277 274 276 288 299 288 294 300 312 309 299 296 288 294 297 285 271 272 265 260 261 258
240 229 238 263 249 242 256 257 257 259 261 263 265 269 267 265 252 258 262 267 272 265 266 278 290 297 302 303 305 307 310 314 320 303 291 299 293 283 260 263 265 258 259
235 235 257 261 257 248 239 262 252 256 260 261 258 263 263 264 261 260 265 266 258 257 270 277 287 297 302 301 308 306 302 305 305 299 296 295 293 281 269 264 260 258 258
247 255 271 279 264 237 248 275 263 257 258 267 267 254 266 252 271 276 265 254 250 264 275 281 288 291 292 294 287 298 295 300 297 299 291 285 287 286 278 269 269 273 267
266 271 271 266 241 233 248 266 267 271 272 263 272 270 257 263 275 281 272 261 264 271 283 284 286 288 289 288 287 289 285 292 291 293 288 285 280 281 286 276 270 268 268
268 252 226 251 238 230 244 258 266 272 275 283 268 260 262 263 262 267 279 278 281 282 282 283 282 282 283 285 281 281 279 276 284 288 286 282 282 284 277 271 267 270 277
247 259 234 225 252 239 246 251 257 267 281 270 261 261 268 266 266 273 276 279 283 281 281 281 281 281 283 281 280 282 271 272 277 275 283 281 277 279 280 276 270 270 276
252 243 243 238 243 245 240 241 252 247 262 265 259 262 260 263 265 269 273 276 277 282 283 283 281 283 282 281 281 278 275 275 269 264 277 276 282 271 267 268 269 271 278
259 252 245 248 247 246 247 244 236 248 250 255 257 261 264 265 269 274 278 284 287 281 278 276 279 281 283 284 282 278 276 269 267 271 270 270 276 271 270 276 272 274 276
229 223 230 240 251 254 252 257 262 258 252 255 261 266 270 272 273 273 274 276 281 287 281 277 278 278 276 276 277 275 269 265 269 271 257 263 272 267 268 268 273 283 296
264 265 256 258 259 262 261 262 262 264 263 265 269 273 276 276 277 276 278 279 277 278 284 281 277 273 273 273 270 263 264 265 267 271 265 256 264 261 258 273 274 279 280
284 291 296 289 283 282 282 280 279 278 279 279 280 280 280 280 282 283 281 279 278 277 279 284 283 280 275 271 266 264 262 261 264 265 266 263 252 249 259 266 267 269 276
301 302 301 301 299 295 294 293 293 292 292 292 292 290 291 292 288 288 288 284 281 277 278 282 285 283 276 272 270 266 262 258 258 258 260 259 258 256 260 265 272 269 271
313 314 310 307 310 312 311 309 307 306 307 308 305 302 302 302 300 302 303 302 300 293 284 285 286 284 280 277 273 267 263 264 265 265 266 266 268 267 264 266 266 264 262
319 317 316 319 318 314 311 309 306 305 307 306 306 305 303 301 302 304 306 304 307 305 302 287 282 288 287 282 273 272 273 271 271 269 267 262 265 267 255 255 251 249 256
319 323 322 323 322 319 315 309 308 311 310 307 307 307 305 304 301 297 293 298 297 295 296 295 292 290 289 285 273 268 267 273 272 271 272 269 265 258 253 242 246 238 246
328 326 329 330 330 332 327 323 312 309 310 308 309 309 305 302 300 297 295 286 285 289 286 287 287 283 288 282 282 274 274 271 270 270 274 272 266 260 254 249 247 247 254
336 339 343 342 341 334 327 321 311 304 307 315 322 321 317 314 305 300 292 287 286 286 282 284 284 286 287 288 283 276 267 264 265 264 272 271 266 261 253 248 252 251 246
360 358 355 350 342 343 331 325 324 320 322 320 323 320 318 317 307 308 300 294 291 287 284 283 284 286 284 291 282 278 273 272 270 269 266 265 267 265 257 240 238 230 233
0 352 356 349 344 340 334 330 324 314 321 318 316 326 320 319 325 310 300 293 292 288 286 282 279 277 278 281 278 274 264 262 262 262 265 266 267 266 264 261 245 241 245
9 356 356 355 358 358 355 346 335 324 323 327 340 344 334 322 313 313 297 291 288 304 300 296 291 287 285 280 275 269 263 256 249 254 252 250 258 257 273 276 241 240 246
Wind_Speed_850mb
44 41 43 45 44 40 38 35 35 36 33 32 28 23 18 17 15 16 16 17 20 21 24 28 26 29 32 36 39 40 38 40 38 40 41 43 45 46 48 48 49 47 46
43 44 44 44 43 38 34 31 26 27 28 25 31 30 26 21 20 21 22 25 30 29 28 30 30 31 32 34 39 38 40 38 41 39 42 45 44 43 50 49 52 55 50
43 45 44 42 36 33 36 37 35 33 35 35 36 34 33 27 23 26 28 31 33 30 29 35 36 37 37 40 43 46 49 53 51 51 46 50 50 47 47 49 51 57 53
44 44 45 42 36 36 37 39 39 42 42 41 40 35 32 29 29 23 23 33 35 37 40 41 34 35 37 41 46 48 47 45 53 57 53 51 55 54 53 51 49 54 57
44 43 42 45 39 38 50 55 51 54 48 42 42 38 38 48 45 43 40 41 43 44 42 35 32 36 42 44 47 50 51 43 37 38 40 48 58 58 55 54 51 50 57
45 41 40 40 55 50 67 69 66 55 52 52 55 55 52 53 48 45 41 42 44 43 40 35 33 30 27 30 39 39 37 39 36 38 43 43 49 53 48 54 52 49 54
72 66 69 73 74 62 79 72 57 55 53 53 63 67 49 66 55 50 49 49 51 43 37 33 32 30 28 30 35 41 38 34 31 32 38 43 36 42 51 55 43 43 47
81 39 37 58 79 92 71 97 56 63 62 64 66 58 50 55 55 54 49 53 49 39 39 38 37 34 31 31 32 37 43 45 46 41 41 45 44 43 42 49 47 47 48
84 81 84 79 73 65 90 66 67 65 61 58 59 37 26 41 42 47 46 45 42 42 41 43 41 43 40 39 40 40 44 43 47 41 38 41 46 45 47 47 42 39 43
75 64 63 63 49 51 63 71 58 47 52 59 36 40 59 58 39 41 44 37 41 47 52 49 49 50 52 49 47 52 51 50 50 49 45 41 40 44 43 39 41 37 36
27 33 23 21 30 36 42 44 38 37 35 32 30 62 65 50 55 56 61 66 65 65 64 61 60 64 65 62 60 59 51 54 48 52 47 39 38 39 42 43 42 41 36
43 26 31 36 38 36 41 43 39 35 45 55 54 52 51 49 49 53 59 64 75 84 79 77 78 81 78 71 66 60 52 59 60 53 55 46 37 40 38 38 40 39 41
32 34 37 38 45 44 44 51 48 50 53 59 44 45 47 48 50 54 61 70 80 88 93 97 95 92 86 80 75 65 61 58 58 53 53 57 48 44 39 37 37 36 37
33 38 42 45 46 49 53 46 49 49 54 50 49 51 53 55 56 60 62 65 74 78 74 78 73 80 87 87 77 69 67 56 49 56 52 56 55 53 44 44 40 40 40
14 17 19 23 31 31 32 31 36 39 48 55 58 62 63 67 71 75 76 73 68 77 86 73 72 67 66 73 74 71 66 68 71 62 56 56 56 59 54 49 52 48 52
19 17 19 21 25 30 33 36 40 45 51 55 57 62 67 71 75 77 78 80 78 74 93 71 69 73 70 68 61 66 72 72 72 75 63 69 65 70 56 52 59 46 48
21 26 27 29 32 36 38 41 45 51 55 59 62 67 73 75 79 81 80 80 80 75 89 95 70 64 61 65 76 84 80 79 75 75 75 56 57 68 59 54 46 48 54
32 35 39 42 42 43 46 48 50 52 54 57 58 61 66 67 71 72 75 80 85 87 88 105 80 71 73 71 66 68 71 77 86 92 90 82 75 71 71 71 59 58 63
38 39 41 42 44 45 45 44 43 43 45 48 51 55 57 57 59 56 58 62 65 66 68 82 100 83 82 88 86 81 75 77 84 82 77 85 82 80 81 75 64 60 56
38 37 37 38 40 42 43 42 41 41 46 50 52 53 53 53 55 54 56 60 67 71 73 70 83 77 68 65 69 74 89 92 91 89 86 87 81 54 51 54 58 53 49
36 35 36 37 40 44 40 39 39 45 49 53 55 52 51 52 55 59 66 65 62 66 69 70 75 71 66 61 62 67 73 75 86 90 89 86 85 88 66 60 56 55 51
34 36 38 40 38 33 30 28 33 42 44 49 52 52 54 58 59 61 58 58 61 67 72 73 78 74 76 72 70 73 75 70 73 67 63 61 61 63 70 79 65 67 64
35 32 30 31 31 29 31 33 35 40 45 46 49 52 56 61 65 68 68 65 65 65 68 71 75 78 79 71 69 72 76 76 71 75 62 71 60 66 59 60 61 65 55
26 28 29 29 30 29 35 34 31 35 41 46 52 57 60 68 52 53 53 58 64 68 69 70 75 77 73 72 66 70 70 63 70 73 60 72 58 60 50 52 49 51 58
22 26 30 36 36 31 31 34 33 38 44 47 49 56 50 48 51 50 54 61 69 76 73 74 76 68 72 70 67 69 77 67 73 77 57 57 53 51 43 48 59 64 64
23 28 33 37 32 33 32 29 29 37 39 42 44 38 43 45 45 44 47 54 63 67 64 64 67 66 68 73 73 71 75 85 82 58 50 52 51 42 31 26 32 42 49
Wind_Direction_850mb
246 249 246 241 239 237 241 244 251 252 251 251 240 238 236 238 239 241 248 257 267 273 285 287 287 291 295 296 293 294 290 295 302 299 293 289 281 273 268 269 271 268 266
255 254 249 245 243 244 246 244 252 257 250 251 234 234 230 230 237 242 258 273 283 281 286 287 285 286 285 279 275 284 283 286 296 297 290 284 277 277 271 266 266 269 270
259 258 253 246 245 243 246 255 264 261 250 250 241 240 237 235 247 259 273 280 279 275 283 293 295 294 291 287 279 282 281 280 277 279 282 281 276 266 265 262 263 268 268
249 253 253 248 252 254 255 257 257 258 260 259 255 248 244 260 270 260 276 272 265 274 285 288 289 299 299 297 293 292 291 290 285 280 281 280 280 274 263 260 253 256 262
252 250 247 247 241 264 258 259 255 262 264 257 250 254 273 278 263 263 262 262 270 281 279 282 287 295 295 293 294 296 292 288 295 295 299 295 277 271 271 263 260 254 255
261 254 249 251 251 252 260 262 254 250 256 261 266 270 285 273 262 254 255 261 273 277 274 276 288 299 288 294 300 312 309 299 296 288 294 297 285 271 272 265 260 261 258
240 229 238 263 249 242 256 257 257 259 261 263 265 269 267 265 252 258 262 267 272 265 266 278 290 297 302 303 305 307 310 314 320 303 291 299 293 283 260 263 265 258 259
235 235 257 261 257 248 239 262 252 256 260 261 258 263 263 264 261 260 265 266 258 257 270 277 287 297 302 301 308 306 302 305 305 299 296 295 293 281 269 264 260 258 258
247 255 271 279 264 237 248 275 263 257 258 267 267 254 266 252 271 276 265 254 250 264 275 281 288 291 292 294 287 298 295 300 297 299 291 285 287 286 278 269 269 273 267
266 271 271 266 241 233 248 266 267 271 272 263 272 270 257 263 275 281 272 261 264 271 283 284 286 288 289 288 287 289 285 292 291 293 288 285 280 281 286 276 270 268 268
268 252 226 251 238 230 244 258 266 272 275 283 268 260 262 263 262 267 279 278 281 282 282 283 282 282 283 285 281 281 279 276 284 288 286 282 282 284 277 271 267 270 277
247 259 234 225 252 239 246 251 257 267 281 270 261 261 268 266 266 273 276 279 283 281 281 281 281 281 283 281 280 282 271 272 277 275 283 281 277 279 280 276 270 270 276
252 243 243 238 243 245 240 241 252 247 262 265 259 262 260 263 265 269 273 276 277 282 283 283 281 283 282 281 281 278 275 275 269 264 277 276 282 271 267 268 269 271 278
259 252 245 248 247 246 247 244 236 248 250 255 257 261 264 265 269 274 278 284 287 281 278 276 279 281 283 284 282 278 276 269 267 271 270 270 276 271 270 276 272 274 276
229 223 230 240 251 254 252 257 262 258 252 255 261 266 270 272 273 273 274 276 281 287 281 277 278 278 276 276 277 275 269 265 269 271 257 263 272 267 268 268 273 283 296
264 265 256 258 259 262 261 262 262 264 263 265 269 273 276 276 277 276 278 279 277 278 284 281 277 273 273 273 270 263 264 265 267 271 265 256 264 261 258 273 274 279 280
284 291 296 289 283 282 282 280 279 278 279 279 280 280 280 280 282 283 281 279 278 277 279 284 283 280 275 271 266 264 262 261 264 265 266 263 252 249 259 266 267 269 276
301 302 301 301 299 295 294 293 293 292 292 292 292 290 291 292 288 288 288 284 281 277 278 282 285 283 276 272 270 266 262 258 258 258 260 259 258 256 260 265 272 269 271
313 314 310 307 310 312 311 309 307 306 307 308 305 302 302 302 300 302 303 302 300 293 284 285 286 284 280 277 273 267 263 264 265 265 266 266 268 267 264 266 266 264 262
319 317 316 319 318 314 311 309 306 305 307 306 306 305 303 301 302 304 306 304 307 305 302 287 282 288 287 282 273 272 273 271 271 269 267 262 265 267 255 255 251 249 256
319 323 322 323 322 319 315 309 308 311 310 307 307 307 305 304 301 297 293 298 297 295 296 295 292 290 289 285 273 268 267 273 272 271 272 269 265 258 253 242 246 238 246
328 326 329 330 330 332 327 323 312 309 310 308 309 309 305 302 300 297 295 286 285 289 286 287 287 283 288 282 282 274 274 271 270 270 274 272 266 260 254 249 247 247 254
336 339 343 342 341 334 327 321 311 304 307 315 322 321 317 314 305 300 292 287 286 286 282 284 284 286 287 288 283 276 267 264 265 264 272 271 266 261 253 248 252 251 246
360 358 355 350 342 343 331 325 324 320 322 320 323 320 318 317 307 308 300 294 291 287 284 283 284 286 284 291 282 278 273 272 270 269 266 265 267 265 257 240 238 230 233
0 352 356 349 344 340 334 330 324 314 321 318 316 326 320 319 325 310 300 293 292 288 286 282 279 277 278 281 278 274 264 262 262 262 265 266 267 266 264 261 245 241 245
9 356 356 355 358 358 355 346 335 324 323 327 340 344 334 322 313 313 297 291 288 304 300 296 291 287 285 280 275 269 263 256 249 254 252 250 258 257 273 276 241 240 246